Notices

What's New in latest Release from April 7th, 2021:

- Updated Glossary, including Speed of Maximum Gust, and Total Hourly Precipitation

- Updated national and regional climate services offices contacts and prices information

- Addition of station inventory lists for 1981-2010, 1971-2000, and 1961-1990 Normals.

If you haven't already, please take our survey and provide feedback about our website: https://eccc.sondage-survey.ca/f/LanguageSelection.aspx?s=442ca660-fcf1-47c0-95a9-59707d6fd709

Hourly Data Report for January 16, 2021

CARBERRY CS
MANITOBA
Current Station Operator: ECCC - MSC

49°54'20.900" N
99°21'26.800" W
383.50 m
5010547
71170
WZE

Download Data

Hourly Data (January 2021)
Hourly Data Report for January 16, 2021
TIME
LST
Temp Definition
°C
Dew Point Definition
°C
Rel Hum Definition
%
Precip. Amount Definition
mm

Wind Dir Definition
10's deg

Wind Spd Definition
km/h
Visibility Definition
km
Stn Press Definition
kPa
Hmdx Definition


Wind Chill Definition


Weather Definition


00:00 -11.1 -12.1 92 0.0 24 2   96.99   -12 LegendNANA
01:00 -10.6 -11.6 93 0.0 20 5   96.91   -14 LegendNANA
02:00 -11.1 -12.2 92 0.0 25 6   96.87   -15 LegendNANA
03:00 -9.5 -10.3 94 0.0 26 9   96.81   -14 LegendNANA
04:00 -8.6 -9.1 96 0.0 26 9   96.79   -13 LegendNANA
05:00 -8.4 -9.0 96 0.0 23 7   96.75   -12 LegendNANA
06:00 -8.0 -8.4 97 0.0 23 13   96.63   -14 LegendNANA
07:00 -7.7 -8.2 96 0.0 23 11   96.60   -13 LegendNANA
08:00 -7.5 -8.0 96 0.0 24 15   96.60   -14 LegendNANA
09:00 -7.4 -8.0 96 0.0 24 17   96.54   -14 LegendNANA
10:00 -7.1 -8.3 91 0.0 24 13   96.50   -13 LegendNANA
11:00 -7.0 -9.1 85 0.0 24 15   96.44   -13 LegendNANA
12:00 -5.5 -8.8 77 0.0 25 19   96.38   -12 LegendNANA
13:00 -4.6 -9.1 71 0.0 25 21   96.29   -11 LegendNANA
14:00 -4.2 -8.7 71 0.0 27 23   96.24   -11 LegendNANA
15:00 -4.4 -8.7 71 0.0 27 17   96.27   -10 LegendNANA
16:00 -4.5 -8.7 73 0.0 27 19   96.26   -11 LegendNANA
17:00 -4.5 -8.0 77 0.0 27 28   96.28   -12 LegendNANA
18:00 -4.3 -7.5 79 0.0 27 20   96.25   -11 LegendNANA
19:00 -5.0 -8.2 79 0.0 28 18   96.25   -11 LegendNANA
20:00 -6.2 -8.6 83 0.0 27 21   96.22   -13 LegendNANA
21:00 -7.4 -9.5 85 0.0 28 14   96.27   -13 LegendNANA
22:00 -4.6 -7.4 81 0.0 27 14   96.32   -10 LegendNANA
23:00 -4.2 -6.8 82 0.0 28 6   96.32   -7 LegendNANA

Notes on Data Quality.

Legend

  • E = Estimated
  • M = Missing
  • NA = Not Available*
  • [empty] = Indicates an unobserved value
Date modified: